Year,Month,Day,Hour,Minute,Value (Times are PST for temperature in C)
2019,07,29,00,00,17.10
2019,07,29,00,01,17.10
2019,07,29,00,02,17.10
2019,07,29,00,03,17.10
2019,07,29,00,04,17.10
2019,07,29,00,05,17.10
2019,07,29,00,06,17.10
2019,07,29,00,07,17.00
2019,07,29,00,08,16.90
2019,07,29,00,09,16.90
2019,07,29,00,10,16.90
2019,07,29,00,11,16.80
2019,07,29,00,12,16.80
2019,07,29,00,13,16.80
2019,07,29,00,14,16.80
2019,07,29,00,15,16.80
2019,07,29,00,16,16.80
2019,07,29,00,17,16.80
2019,07,29,00,18,16.80
2019,07,29,00,19,16.70
2019,07,29,00,20,16.70
2019,07,29,00,21,16.70
2019,07,29,00,22,16.70
2019,07,29,00,23,16.70
2019,07,29,00,24,16.70
2019,07,29,00,25,16.70
2019,07,29,00,26,16.70
2019,07,29,00,27,16.60
2019,07,29,00,28,16.60
2019,07,29,00,29,16.60
2019,07,29,00,30,16.60
2019,07,29,00,31,16.60
2019,07,29,00,32,16.60
2019,07,29,00,33,16.60
2019,07,29,00,34,16.60
2019,07,29,00,35,16.60
2019,07,29,00,36,16.60
2019,07,29,00,37,16.60
2019,07,29,00,38,16.60
2019,07,29,00,39,16.50
2019,07,29,00,40,16.50
2019,07,29,00,41,16.50
2019,07,29,00,42,16.50
2019,07,29,00,43,16.50
2019,07,29,00,44,16.40
2019,07,29,00,45,16.40
2019,07,29,00,46,16.40
2019,07,29,00,47,16.40
2019,07,29,00,48,16.40
2019,07,29,00,49,16.30
2019,07,29,00,50,16.30
2019,07,29,00,51,16.30
2019,07,29,00,52,16.30
2019,07,29,00,53,16.30
2019,07,29,00,54,16.30
2019,07,29,00,55,16.30
2019,07,29,00,56,16.30
2019,07,29,00,57,16.30
2019,07,29,00,58,16.20
2019,07,29,00,59,16.20
2019,07,29,01,00,16.20
2019,07,29,01,01,16.20
2019,07,29,01,02,16.20
2019,07,29,01,03,16.20
2019,07,29,01,04,16.20
2019,07,29,01,05,16.20
2019,07,29,01,06,16.20
2019,07,29,01,07,16.20
2019,07,29,01,08,16.20
2019,07,29,01,09,16.20
2019,07,29,01,10,16.20
2019,07,29,01,11,16.20
2019,07,29,01,12,16.20
2019,07,29,01,13,16.10
2019,07,29,01,14,16.10
2019,07,29,01,15,16.10
2019,07,29,01,16,16.10
2019,07,29,01,17,16.10
2019,07,29,01,18,16.10
2019,07,29,01,19,16.10
2019,07,29,01,20,16.00
2019,07,29,01,21,16.00
2019,07,29,01,22,16.00
2019,07,29,01,23,15.90
2019,07,29,01,24,15.90
2019,07,29,01,25,15.90
2019,07,29,01,26,15.90
2019,07,29,01,27,15.90
2019,07,29,01,28,15.90
2019,07,29,01,29,15.90
2019,07,29,01,30,15.90
2019,07,29,01,31,15.90
2019,07,29,01,32,15.90
2019,07,29,01,33,15.90
2019,07,29,01,34,15.90
2019,07,29,01,35,15.90
2019,07,29,01,36,15.90
2019,07,29,01,37,15.80
2019,07,29,01,38,15.90
2019,07,29,01,39,15.80
2019,07,29,01,40,15.80
2019,07,29,01,41,15.80
2019,07,29,01,42,15.80
2019,07,29,01,43,15.80
2019,07,29,01,44,15.80
2019,07,29,01,45,15.80
2019,07,29,01,46,15.80
2019,07,29,01,47,15.70
2019,07,29,01,48,15.70
2019,07,29,01,49,15.70
2019,07,29,01,50,15.70
2019,07,29,01,51,15.70
2019,07,29,01,52,15.70
2019,07,29,01,53,15.70
2019,07,29,01,54,15.70
2019,07,29,01,55,15.70
2019,07,29,01,56,15.70
2019,07,29,01,57,15.70
2019,07,29,01,58,15.70
2019,07,29,01,59,15.70
2019,07,29,02,00,15.70
2019,07,29,02,01,15.70
2019,07,29,02,02,15.70
2019,07,29,02,03,15.70
2019,07,29,02,04,15.70
2019,07,29,02,05,15.70
2019,07,29,02,06,15.60
2019,07,29,02,07,15.60
2019,07,29,02,08,15.60
2019,07,29,02,09,15.60
2019,07,29,02,10,15.60
2019,07,29,02,11,15.60
2019,07,29,02,12,15.60
2019,07,29,02,13,15.60
2019,07,29,02,14,15.60
2019,07,29,02,15,15.50
2019,07,29,02,16,15.50
2019,07,29,02,17,15.50
2019,07,29,02,18,15.50
2019,07,29,02,19,15.40
2019,07,29,02,20,15.40
2019,07,29,02,21,15.40
2019,07,29,02,22,15.40
2019,07,29,02,23,15.40
2019,07,29,02,24,15.30
2019,07,29,02,25,15.30
2019,07,29,02,26,15.30
2019,07,29,02,27,15.30
2019,07,29,02,28,15.30
2019,07,29,02,29,15.30
2019,07,29,02,30,15.30
2019,07,29,02,31,15.30
2019,07,29,02,32,15.30
2019,07,29,02,33,15.20
2019,07,29,02,34,15.20
2019,07,29,02,35,15.20
2019,07,29,02,36,15.20
2019,07,29,02,37,15.20
2019,07,29,02,38,15.20
2019,07,29,02,39,15.10
2019,07,29,02,40,15.10
2019,07,29,02,41,15.10
2019,07,29,02,42,15.10
2019,07,29,02,43,15.10
2019,07,29,02,44,15.10
2019,07,29,02,45,15.10
2019,07,29,02,46,15.10
2019,07,29,02,47,15.10
2019,07,29,02,48,15.00
2019,07,29,02,49,15.00
2019,07,29,02,50,15.00
2019,07,29,02,51,15.00
2019,07,29,02,52,14.90
2019,07,29,02,53,14.90
2019,07,29,02,54,14.90
2019,07,29,02,55,14.90
2019,07,29,02,56,14.90
2019,07,29,02,57,14.90
2019,07,29,02,58,14.80
2019,07,29,02,59,14.80
2019,07,29,03,00,14.80
2019,07,29,03,01,14.80
2019,07,29,03,02,14.80
2019,07,29,03,03,14.80
2019,07,29,03,04,14.80
2019,07,29,03,05,14.80
2019,07,29,03,06,14.80
2019,07,29,03,07,14.80
2019,07,29,03,08,14.80
2019,07,29,03,09,14.80
2019,07,29,03,10,14.80
2019,07,29,03,11,14.80
2019,07,29,03,12,14.80
2019,07,29,03,13,14.80
2019,07,29,03,14,14.80
2019,07,29,03,15,14.80
2019,07,29,03,16,14.80
2019,07,29,03,17,14.80
2019,07,29,03,18,14.80
2019,07,29,03,19,14.80
2019,07,29,03,20,14.80
2019,07,29,03,21,14.80
2019,07,29,03,22,14.80
2019,07,29,03,23,14.80
2019,07,29,03,24,14.80
2019,07,29,03,25,14.80
2019,07,29,03,26,14.80
2019,07,29,03,27,14.80
2019,07,29,03,28,14.80
2019,07,29,03,29,14.80
2019,07,29,03,30,14.80
2019,07,29,03,31,14.80
2019,07,29,03,32,14.80
2019,07,29,03,33,14.80
2019,07,29,03,34,14.80
2019,07,29,03,35,14.80
2019,07,29,03,36,14.80
2019,07,29,03,37,14.80
2019,07,29,03,38,14.80
2019,07,29,03,39,14.80
2019,07,29,03,40,14.70
2019,07,29,03,41,14.70
2019,07,29,03,42,14.70
2019,07,29,03,43,14.70
2019,07,29,03,44,14.70
2019,07,29,03,45,14.70
2019,07,29,03,46,14.70
2019,07,29,03,47,14.60
2019,07,29,03,48,14.60
2019,07,29,03,49,14.60
2019,07,29,03,50,14.60
2019,07,29,03,51,14.60
2019,07,29,03,52,14.60
2019,07,29,03,53,14.60
2019,07,29,03,54,14.60
2019,07,29,03,55,14.50
2019,07,29,03,56,14.50
2019,07,29,03,57,14.50
2019,07,29,03,58,14.50
2019,07,29,03,59,14.50
2019,07,29,04,00,14.40
2019,07,29,04,01,14.40
2019,07,29,04,02,14.40
2019,07,29,04,03,14.40
2019,07,29,04,04,14.40
2019,07,29,04,05,14.40
2019,07,29,04,06,14.40
2019,07,29,04,07,14.40
2019,07,29,04,08,14.40
2019,07,29,04,09,14.40
2019,07,29,04,10,14.40
2019,07,29,04,11,14.40
2019,07,29,04,12,14.30
2019,07,29,04,13,14.30
2019,07,29,04,14,14.40
2019,07,29,04,15,14.40
2019,07,29,04,16,14.40
2019,07,29,04,17,14.40
2019,07,29,04,18,14.40
2019,07,29,04,19,14.40
2019,07,29,04,20,14.40
2019,07,29,04,21,14.40
2019,07,29,04,22,14.40
2019,07,29,04,23,14.40
2019,07,29,04,24,14.40
2019,07,29,04,25,14.40
2019,07,29,04,26,14.40
2019,07,29,04,27,14.30
2019,07,29,04,28,14.30
2019,07,29,04,29,14.30
2019,07,29,04,30,14.30
2019,07,29,04,31,14.30
2019,07,29,04,32,14.30
2019,07,29,04,33,14.30
2019,07,29,04,34,14.30
2019,07,29,04,35,14.30
2019,07,29,04,36,14.20
2019,07,29,04,37,14.20
2019,07,29,04,38,14.20
2019,07,29,04,39,14.20
2019,07,29,04,40,14.20
2019,07,29,04,41,14.20
2019,07,29,04,42,14.20
2019,07,29,04,43,14.20
2019,07,29,04,44,14.20
2019,07,29,04,45,14.20
2019,07,29,04,46,14.10
2019,07,29,04,47,14.10
2019,07,29,04,48,14.10
2019,07,29,04,49,14.10
2019,07,29,04,50,14.10
2019,07,29,04,51,14.10
2019,07,29,04,52,14.10
2019,07,29,04,53,14.10
2019,07,29,04,54,14.10
2019,07,29,04,55,14.10
2019,07,29,04,56,14.10
2019,07,29,04,57,14.10
2019,07,29,04,58,14.10
2019,07,29,04,59,14.00
2019,07,29,05,00,14.00
2019,07,29,05,01,13.90
2019,07,29,05,02,13.90
2019,07,29,05,03,13.90
2019,07,29,05,04,13.90
2019,07,29,05,05,13.80
2019,07,29,05,06,13.80
2019,07,29,05,07,13.80
2019,07,29,05,08,13.80
2019,07,29,05,09,13.80
2019,07,29,05,10,13.80
2019,07,29,05,11,13.80
2019,07,29,05,12,13.80
2019,07,29,05,13,13.80
2019,07,29,05,14,13.80
2019,07,29,05,15,13.80
2019,07,29,05,16,13.80
2019,07,29,05,17,13.80
2019,07,29,05,18,13.80
2019,07,29,05,19,13.80
2019,07,29,05,20,13.80
2019,07,29,05,21,13.80
2019,07,29,05,22,13.80
2019,07,29,05,23,13.80
2019,07,29,05,24,13.80
2019,07,29,05,25,13.80
2019,07,29,05,26,13.80
2019,07,29,05,27,13.70
2019,07,29,05,28,13.70
2019,07,29,05,29,13.70
2019,07,29,05,30,13.70
2019,07,29,05,31,13.70
2019,07,29,05,32,13.70
2019,07,29,05,33,13.70
2019,07,29,05,34,13.60
2019,07,29,05,35,13.60
2019,07,29,05,36,13.60
2019,07,29,05,37,13.60
2019,07,29,05,38,13.60
2019,07,29,05,39,13.60
2019,07,29,05,40,13.70
2019,07,29,05,41,13.70
2019,07,29,05,42,13.70
2019,07,29,05,43,13.70
2019,07,29,05,44,13.70
2019,07,29,05,45,13.70
2019,07,29,05,46,13.70
2019,07,29,05,47,13.70
2019,07,29,05,48,13.60
2019,07,29,05,49,13.60
2019,07,29,05,50,13.60
2019,07,29,05,51,13.60
2019,07,29,05,52,13.60
2019,07,29,05,53,13.60
2019,07,29,05,54,13.60
2019,07,29,05,55,13.60
2019,07,29,05,56,13.60
2019,07,29,05,57,13.60
2019,07,29,05,58,13.50
2019,07,29,05,59,13.50
2019,07,29,06,00,13.50
2019,07,29,06,01,13.50
2019,07,29,06,02,13.50
2019,07,29,06,03,13.40
2019,07,29,06,04,13.40
2019,07,29,06,05,13.40
2019,07,29,06,06,13.40
2019,07,29,06,07,13.40
2019,07,29,06,08,13.40
2019,07,29,06,09,13.40
2019,07,29,06,10,13.40
2019,07,29,06,11,13.40
2019,07,29,06,12,13.40
2019,07,29,06,13,13.40
2019,07,29,06,14,13.40
2019,07,29,06,15,13.40
2019,07,29,06,16,13.40
2019,07,29,06,17,13.50
2019,07,29,06,18,13.50
2019,07,29,06,19,13.50
2019,07,29,06,20,13.60
2019,07,29,06,21,13.60
2019,07,29,06,22,13.60
2019,07,29,06,23,13.60
2019,07,29,06,24,13.60
2019,07,29,06,25,13.70
2019,07,29,06,26,13.70
2019,07,29,06,27,13.70
2019,07,29,06,28,13.80
2019,07,29,06,29,13.80
2019,07,29,06,30,13.80
2019,07,29,06,31,13.90
2019,07,29,06,32,13.90
2019,07,29,06,33,13.90
2019,07,29,06,34,14.00
2019,07,29,06,35,14.00
2019,07,29,06,36,14.10
2019,07,29,06,37,14.10
2019,07,29,06,38,14.10
2019,07,29,06,39,14.10
2019,07,29,06,40,14.20
2019,07,29,06,41,14.20
2019,07,29,06,42,14.20
2019,07,29,06,43,14.20
2019,07,29,06,44,14.30
2019,07,29,06,45,14.30
2019,07,29,06,46,14.30
2019,07,29,06,47,14.30
2019,07,29,06,48,14.40
2019,07,29,06,49,14.40
2019,07,29,06,50,14.40
2019,07,29,06,51,14.50
2019,07,29,06,52,14.50
2019,07,29,06,53,14.50
2019,07,29,06,54,14.60
2019,07,29,06,55,14.60
2019,07,29,06,56,14.60
2019,07,29,06,57,14.70
2019,07,29,06,58,14.70
2019,07,29,06,59,14.70
2019,07,29,07,00,14.80
2019,07,29,07,01,14.80
2019,07,29,07,02,14.80
2019,07,29,07,03,14.80
2019,07,29,07,04,14.90
2019,07,29,07,05,14.90
2019,07,29,07,06,14.90
2019,07,29,07,07,15.00
2019,07,29,07,08,15.00
2019,07,29,07,09,15.00
2019,07,29,07,10,15.10
2019,07,29,07,11,15.20
2019,07,29,07,12,15.20
2019,07,29,07,13,15.30
2019,07,29,07,14,15.30
2019,07,29,07,15,15.30
2019,07,29,07,16,15.40
2019,07,29,07,17,15.40
2019,07,29,07,18,15.50
2019,07,29,07,19,15.50
2019,07,29,07,20,15.60
2019,07,29,07,21,15.70
2019,07,29,07,22,15.70
2019,07,29,07,23,15.70
2019,07,29,07,24,15.80
2019,07,29,07,25,15.80
2019,07,29,07,26,15.90
2019,07,29,07,27,15.90
2019,07,29,07,28,16.00
2019,07,29,07,29,16.10
2019,07,29,07,30,16.10
2019,07,29,07,31,16.20
2019,07,29,07,32,16.20
2019,07,29,07,33,16.30
2019,07,29,07,34,16.30
2019,07,29,07,35,16.40
2019,07,29,07,36,16.50
2019,07,29,07,37,16.60
2019,07,29,07,38,16.60
2019,07,29,07,39,16.70
2019,07,29,07,40,16.80
2019,07,29,07,41,16.80
2019,07,29,07,42,16.90
2019,07,29,07,43,16.90
2019,07,29,07,44,17.00
2019,07,29,07,45,17.00
2019,07,29,07,46,17.10
2019,07,29,07,47,17.10
2019,07,29,07,48,17.20
2019,07,29,07,49,17.20
2019,07,29,07,50,17.30
2019,07,29,07,51,17.40
2019,07,29,07,52,17.50
2019,07,29,07,53,17.50
2019,07,29,07,54,17.60
2019,07,29,07,55,17.70
2019,07,29,07,56,17.80
2019,07,29,07,57,17.90
2019,07,29,07,58,18.00
2019,07,29,07,59,18.00
2019,07,29,08,00,18.10
2019,07,29,08,01,18.10
2019,07,29,08,02,18.20
2019,07,29,08,03,18.20
2019,07,29,08,04,18.30
2019,07,29,08,05,18.30
2019,07,29,08,06,18.40
2019,07,29,08,07,18.40
2019,07,29,08,08,18.50
2019,07,29,08,09,18.50
2019,07,29,08,10,18.60
2019,07,29,08,11,18.70
2019,07,29,08,12,18.80
2019,07,29,08,13,18.80
2019,07,29,08,14,18.90
2019,07,29,08,15,18.90
2019,07,29,08,16,19.00
2019,07,29,08,17,19.00
2019,07,29,08,18,19.10
2019,07,29,08,19,19.10
2019,07,29,08,20,19.20
2019,07,29,08,21,19.20
2019,07,29,08,22,19.30
2019,07,29,08,23,19.30
2019,07,29,08,24,19.30
2019,07,29,08,25,19.30
2019,07,29,08,26,19.30
2019,07,29,08,27,19.30
2019,07,29,08,28,19.30
2019,07,29,08,29,19.30
2019,07,29,08,30,19.30
2019,07,29,08,31,19.30
2019,07,29,08,32,19.30
2019,07,29,08,33,19.30
2019,07,29,08,34,19.30
2019,07,29,08,35,19.30
2019,07,29,08,36,19.30
2019,07,29,08,37,19.30
2019,07,29,08,38,19.40
2019,07,29,08,39,19.30
2019,07,29,08,40,19.30
2019,07,29,08,41,19.30
2019,07,29,08,42,19.40
2019,07,29,08,43,19.40
2019,07,29,08,44,19.50
2019,07,29,08,45,19.60
2019,07,29,08,46,19.60
2019,07,29,08,47,19.60
2019,07,29,08,48,19.60
2019,07,29,08,49,19.60
2019,07,29,08,50,19.50
2019,07,29,08,51,19.40
2019,07,29,08,52,19.30
2019,07,29,08,53,19.10
2019,07,29,08,54,19.00
2019,07,29,08,55,18.90
2019,07,29,08,56,18.70
2019,07,29,08,57,18.60
2019,07,29,08,58,18.60
2019,07,29,08,59,18.40
2019,07,29,09,00,18.40
2019,07,29,09,01,18.30
2019,07,29,09,02,18.20
2019,07,29,09,03,18.20
2019,07,29,09,04,18.20
2019,07,29,09,05,18.20
2019,07,29,09,06,18.20
2019,07,29,09,07,18.20
2019,07,29,09,08,18.10
2019,07,29,09,09,18.10
2019,07,29,09,10,18.10
2019,07,29,09,11,18.10
2019,07,29,09,12,18.10
2019,07,29,09,13,18.10
2019,07,29,09,14,18.10
2019,07,29,09,15,18.10
2019,07,29,09,16,18.20
2019,07,29,09,17,18.30
2019,07,29,09,18,18.30
2019,07,29,09,19,18.30
2019,07,29,09,20,18.30
2019,07,29,09,21,18.20
2019,07,29,09,22,18.20
2019,07,29,09,23,18.20
2019,07,29,09,24,18.20
2019,07,29,09,25,18.20
2019,07,29,09,26,18.20
2019,07,29,09,27,18.20
2019,07,29,09,28,18.20
2019,07,29,09,29,18.20
2019,07,29,09,30,18.20
2019,07,29,09,31,18.20
2019,07,29,09,32,18.30
2019,07,29,09,33,18.30
2019,07,29,09,34,18.30
2019,07,29,09,35,18.40
2019,07,29,09,36,18.40
2019,07,29,09,37,18.30
2019,07,29,09,38,18.30
2019,07,29,09,39,18.30
2019,07,29,09,40,18.30
2019,07,29,09,41,18.30
2019,07,29,09,42,18.20
2019,07,29,09,43,18.20
2019,07,29,09,44,18.20
2019,07,29,09,45,18.10
2019,07,29,09,46,18.10
2019,07,29,09,47,18.10
2019,07,29,09,48,18.10
2019,07,29,09,49,18.10
2019,07,29,09,50,18.10
2019,07,29,09,51,18.10
2019,07,29,09,52,18.00
2019,07,29,09,53,18.00
2019,07,29,09,54,18.00
2019,07,29,09,55,17.90
2019,07,29,09,56,17.80
2019,07,29,09,57,17.80
2019,07,29,09,58,17.70
2019,07,29,09,59,17.70
2019,07,29,10,00,17.80
2019,07,29,10,01,17.80
2019,07,29,10,02,17.90
2019,07,29,10,03,18.00
2019,07,29,10,04,18.10
2019,07,29,10,05,18.10
2019,07,29,10,06,18.10
2019,07,29,10,07,18.10
2019,07,29,10,08,18.20
2019,07,29,10,09,18.20
2019,07,29,10,10,18.30
2019,07,29,10,11,18.30
2019,07,29,10,12,18.30
2019,07,29,10,13,18.30
2019,07,29,10,14,18.30
2019,07,29,10,15,18.30
2019,07,29,10,16,18.30
2019,07,29,10,17,18.30
2019,07,29,10,18,18.30
2019,07,29,10,19,18.30
2019,07,29,10,20,18.40
2019,07,29,10,21,18.50
2019,07,29,10,22,18.50
2019,07,29,10,23,18.60
2019,07,29,10,24,18.70
2019,07,29,10,25,18.70
2019,07,29,10,26,18.70
2019,07,29,10,27,18.60
2019,07,29,10,28,18.60
2019,07,29,10,29,18.60
2019,07,29,10,30,18.60
2019,07,29,10,31,18.60
2019,07,29,10,32,18.70
2019,07,29,10,33,18.70
2019,07,29,10,34,18.70
2019,07,29,10,35,18.60
2019,07,29,10,36,18.50
2019,07,29,10,37,18.50
2019,07,29,10,38,18.40
2019,07,29,10,39,18.30
2019,07,29,10,40,18.30
2019,07,29,10,41,18.40
2019,07,29,10,42,18.40
2019,07,29,10,43,18.40
2019,07,29,10,44,18.40
2019,07,29,10,45,18.30
2019,07,29,10,46,18.40
2019,07,29,10,47,18.40
2019,07,29,10,48,18.40
2019,07,29,10,49,18.40
2019,07,29,10,50,18.40
2019,07,29,10,51,18.50
2019,07,29,10,52,18.50
2019,07,29,10,53,18.60
2019,07,29,10,54,18.60
2019,07,29,10,55,18.60
2019,07,29,10,56,18.60
2019,07,29,10,57,18.50
2019,07,29,10,58,18.40
2019,07,29,10,59,18.40
2019,07,29,11,00,18.40
2019,07,29,11,01,18.40
2019,07,29,11,02,18.50
2019,07,29,11,03,18.60
2019,07,29,11,04,18.60
2019,07,29,11,05,18.70
2019,07,29,11,06,18.70
2019,07,29,11,07,18.80
2019,07,29,11,08,18.80
2019,07,29,11,09,18.90
2019,07,29,11,10,19.00
2019,07,29,11,11,19.00
2019,07,29,11,12,19.10
2019,07,29,11,13,19.10
2019,07,29,11,14,19.20
2019,07,29,11,15,19.30
2019,07,29,11,16,19.30
2019,07,29,11,17,19.30
2019,07,29,11,18,19.30
2019,07,29,11,19,19.30
2019,07,29,11,20,19.30
2019,07,29,11,21,19.30
2019,07,29,11,22,19.30
2019,07,29,11,23,19.30
2019,07,29,11,24,19.30
2019,07,29,11,25,19.20
2019,07,29,11,26,19.20
2019,07,29,11,27,19.20
2019,07,29,11,28,19.20
2019,07,29,11,29,19.10
2019,07,29,11,30,19.00
2019,07,29,11,31,18.90
2019,07,29,11,32,18.80
2019,07,29,11,33,18.70
2019,07,29,11,34,18.70
2019,07,29,11,35,18.70
2019,07,29,11,36,18.70
2019,07,29,11,37,18.70
2019,07,29,11,38,18.70
2019,07,29,11,39,18.80
2019,07,29,11,40,18.80
2019,07,29,11,41,18.90
2019,07,29,11,42,18.90
2019,07,29,11,43,19.00
2019,07,29,11,44,19.00
2019,07,29,11,45,19.10
2019,07,29,11,46,19.10
2019,07,29,11,47,19.20
2019,07,29,11,48,19.20
2019,07,29,11,49,19.30
2019,07,29,11,50,19.30
2019,07,29,11,51,19.40
2019,07,29,11,52,19.40
2019,07,29,11,53,19.50
2019,07,29,11,54,19.60
2019,07,29,11,55,19.70
2019,07,29,11,56,19.80
2019,07,29,11,57,19.70
2019,07,29,11,58,19.70
2019,07,29,11,59,19.70
2019,07,29,12,00,19.70
2019,07,29,12,01,19.70
2019,07,29,12,02,19.70
2019,07,29,12,03,19.70
2019,07,29,12,04,19.80
2019,07,29,12,05,19.80
2019,07,29,12,06,19.80
2019,07,29,12,07,19.80
2019,07,29,12,08,19.80
2019,07,29,12,09,19.90
2019,07,29,12,10,19.90
2019,07,29,12,11,19.90
2019,07,29,12,12,19.90
2019,07,29,12,13,19.90
2019,07,29,12,14,20.00
2019,07,29,12,15,20.00
2019,07,29,12,16,20.00
2019,07,29,12,17,20.10
2019,07,29,12,18,20.10
2019,07,29,12,19,20.20
2019,07,29,12,20,20.30
2019,07,29,12,21,20.30
2019,07,29,12,22,20.40
2019,07,29,12,23,20.50
2019,07,29,12,24,20.50
2019,07,29,12,25,20.60
2019,07,29,12,26,20.60
2019,07,29,12,27,20.60
2019,07,29,12,28,20.60
2019,07,29,12,29,20.60
2019,07,29,12,30,20.50
2019,07,29,12,31,20.40
2019,07,29,12,32,20.40
2019,07,29,12,33,20.40
2019,07,29,12,34,20.40
2019,07,29,12,35,20.40
2019,07,29,12,36,20.40
2019,07,29,12,37,20.40
2019,07,29,12,38,20.40
2019,07,29,12,39,20.40
2019,07,29,12,40,20.40
2019,07,29,12,41,20.50
2019,07,29,12,42,20.50
2019,07,29,12,43,20.50
2019,07,29,12,44,20.60
2019,07,29,12,45,20.60
2019,07,29,12,46,20.60
2019,07,29,12,47,20.60
2019,07,29,12,48,20.50
2019,07,29,12,49,20.50
2019,07,29,12,50,20.50
2019,07,29,12,51,20.50
2019,07,29,12,52,20.50
2019,07,29,12,53,20.50
2019,07,29,12,54,20.60
2019,07,29,12,55,20.70
2019,07,29,12,56,20.80
2019,07,29,12,57,20.90
2019,07,29,12,58,20.90
2019,07,29,12,59,20.90
2019,07,29,13,00,20.90
2019,07,29,13,01,20.80
2019,07,29,13,02,20.80
2019,07,29,13,03,20.70
2019,07,29,13,04,20.70
2019,07,29,13,05,20.70
2019,07,29,13,06,20.70
2019,07,29,13,07,20.60
2019,07,29,13,08,20.60
2019,07,29,13,09,20.60
2019,07,29,13,10,20.70
2019,07,29,13,11,20.70
2019,07,29,13,12,20.60
2019,07,29,13,13,20.60
2019,07,29,13,14,20.60
2019,07,29,13,15,20.60
2019,07,29,13,16,20.50
2019,07,29,13,17,20.50
2019,07,29,13,18,20.50
2019,07,29,13,19,20.50
2019,07,29,13,20,20.50
2019,07,29,13,21,20.50
2019,07,29,13,22,20.60
2019,07,29,13,23,20.60
2019,07,29,13,24,20.70
2019,07,29,13,25,20.70
2019,07,29,13,26,20.80
2019,07,29,13,27,20.80
2019,07,29,13,28,20.80
2019,07,29,13,29,20.70
2019,07,29,13,30,20.70
2019,07,29,13,31,20.70
2019,07,29,13,32,20.60
2019,07,29,13,33,20.60
2019,07,29,13,34,20.60
2019,07,29,13,35,20.60
2019,07,29,13,36,20.60
2019,07,29,13,37,20.70
2019,07,29,13,38,20.70
2019,07,29,13,39,20.70
2019,07,29,13,40,20.70
2019,07,29,13,41,20.70
2019,07,29,13,42,20.70
2019,07,29,13,43,20.70
2019,07,29,13,44,20.70
2019,07,29,13,45,20.60
2019,07,29,13,46,20.60
2019,07,29,13,47,20.70
2019,07,29,13,48,20.70
2019,07,29,13,49,20.80
2019,07,29,13,50,20.90
2019,07,29,13,51,21.00
2019,07,29,13,52,21.00
2019,07,29,13,53,21.00
2019,07,29,13,54,21.10
2019,07,29,13,55,21.30
2019,07,29,13,56,21.30
2019,07,29,13,57,21.40
2019,07,29,13,58,21.40
2019,07,29,13,59,21.50
2019,07,29,14,00,21.60
2019,07,29,14,01,21.70
2019,07,29,14,02,21.80
2019,07,29,14,03,21.80
2019,07,29,14,04,21.80
2019,07,29,14,05,21.70
2019,07,29,14,06,21.70
2019,07,29,14,07,21.80
2019,07,29,14,08,21.90
2019,07,29,14,09,21.90
2019,07,29,14,10,21.90
2019,07,29,14,11,21.90
2019,07,29,14,12,21.90
2019,07,29,14,13,22.00
2019,07,29,14,14,22.10
2019,07,29,14,15,22.20
2019,07,29,14,16,22.20
2019,07,29,14,17,22.20
2019,07,29,14,18,22.10
2019,07,29,14,19,22.00
2019,07,29,14,20,21.80
2019,07,29,14,21,21.70
2019,07,29,14,22,21.60
2019,07,29,14,23,21.40
2019,07,29,14,24,21.40
2019,07,29,14,25,21.40
2019,07,29,14,26,21.40
2019,07,29,14,27,21.40
2019,07,29,14,28,21.40
2019,07,29,14,29,21.30
2019,07,29,14,30,21.30
2019,07,29,14,31,21.20
2019,07,29,14,32,21.00
2019,07,29,14,33,20.80
2019,07,29,14,34,20.70
2019,07,29,14,35,20.60
2019,07,29,14,36,20.60
2019,07,29,14,37,20.50
2019,07,29,14,38,20.50
2019,07,29,14,39,20.60
2019,07,29,14,40,20.60
2019,07,29,14,41,20.60
2019,07,29,14,42,20.60
2019,07,29,14,43,20.60
2019,07,29,14,44,20.50
2019,07,29,14,45,20.40
2019,07,29,14,46,20.30
2019,07,29,14,47,20.30
2019,07,29,14,48,20.20
2019,07,29,14,49,20.20
2019,07,29,14,50,20.20
2019,07,29,14,51,20.20
2019,07,29,14,52,20.40
2019,07,29,14,53,20.50
2019,07,29,14,54,20.60
2019,07,29,14,55,20.70
2019,07,29,14,56,20.90
2019,07,29,14,57,21.10
2019,07,29,14,58,21.30
2019,07,29,14,59,21.40
2019,07,29,15,00,21.50
2019,07,29,15,01,21.60
2019,07,29,15,02,21.80
2019,07,29,15,03,21.90
2019,07,29,15,04,22.00
2019,07,29,15,05,22.10
2019,07,29,15,06,22.20
2019,07,29,15,07,22.20
2019,07,29,15,08,22.20
2019,07,29,15,09,22.10
2019,07,29,15,10,22.00
2019,07,29,15,11,21.90
2019,07,29,15,12,21.80
2019,07,29,15,13,21.80
2019,07,29,15,14,21.70
2019,07,29,15,15,21.70
2019,07,29,15,16,21.70
2019,07,29,15,17,21.70
2019,07,29,15,18,21.70
2019,07,29,15,19,21.60
2019,07,29,15,20,21.60
2019,07,29,15,21,21.60
2019,07,29,15,22,21.60
2019,07,29,15,23,21.60
2019,07,29,15,24,21.50
2019,07,29,15,25,21.50
2019,07,29,15,26,21.60
2019,07,29,15,27,21.70
2019,07,29,15,28,21.70
2019,07,29,15,29,21.70
2019,07,29,15,30,21.70
2019,07,29,15,31,21.80
2019,07,29,15,32,21.90
2019,07,29,15,33,22.00
2019,07,29,15,34,22.10
2019,07,29,15,35,22.20
2019,07,29,15,36,22.20
2019,07,29,15,37,22.30
2019,07,29,15,38,22.20
2019,07,29,15,39,22.20
2019,07,29,15,40,22.20
2019,07,29,15,41,22.20
2019,07,29,15,42,22.20
2019,07,29,15,43,22.30
2019,07,29,15,44,22.20
2019,07,29,15,45,22.10
2019,07,29,15,46,22.10
2019,07,29,15,47,22.00
2019,07,29,15,48,21.90
2019,07,29,15,49,21.90
2019,07,29,15,50,21.80
2019,07,29,15,51,21.80
2019,07,29,15,52,21.70
2019,07,29,15,53,21.70
2019,07,29,15,54,21.70
2019,07,29,15,55,21.70
2019,07,29,15,56,21.70
2019,07,29,15,57,21.70
2019,07,29,15,58,21.70
2019,07,29,15,59,21.80
2019,07,29,16,00,21.90
2019,07,29,16,01,22.00
2019,07,29,16,02,22.10
2019,07,29,16,03,22.10
2019,07,29,16,04,22.20
2019,07,29,16,05,22.20
2019,07,29,16,06,22.20
2019,07,29,16,07,22.10
2019,07,29,16,08,22.10
2019,07,29,16,09,22.10
2019,07,29,16,10,22.10
2019,07,29,16,11,22.20
2019,07,29,16,12,22.20
2019,07,29,16,13,22.20
2019,07,29,16,14,22.20
2019,07,29,16,15,22.20
2019,07,29,16,16,22.20
2019,07,29,16,17,22.20
2019,07,29,16,18,22.30
2019,07,29,16,19,22.30
2019,07,29,16,20,22.40
2019,07,29,16,21,22.40
2019,07,29,16,22,22.40
2019,07,29,16,23,22.40
2019,07,29,16,24,22.40
2019,07,29,16,25,22.40
2019,07,29,16,26,22.40
2019,07,29,16,27,22.50
2019,07,29,16,28,22.50
2019,07,29,16,29,22.60
2019,07,29,16,30,22.70
2019,07,29,16,31,22.70
2019,07,29,16,32,22.70
2019,07,29,16,33,22.70
2019,07,29,16,34,22.80
2019,07,29,16,35,22.80
2019,07,29,16,36,22.90
2019,07,29,16,37,23.00
2019,07,29,16,38,23.10
2019,07,29,16,39,23.20
2019,07,29,16,40,23.30
2019,07,29,16,41,23.40
2019,07,29,16,42,23.40
2019,07,29,16,43,23.50
2019,07,29,16,44,23.70
2019,07,29,16,45,23.80
2019,07,29,16,46,23.90
2019,07,29,16,47,24.10
2019,07,29,16,48,24.20
2019,07,29,16,49,24.20
2019,07,29,16,50,24.40
2019,07,29,16,51,24.50
2019,07,29,16,52,24.60
2019,07,29,16,53,24.60
2019,07,29,16,54,24.60
2019,07,29,16,55,24.60
2019,07,29,16,56,24.60
2019,07,29,16,57,24.60
2019,07,29,16,58,24.60
2019,07,29,16,59,24.60
2019,07,29,17,00,24.60
2019,07,29,17,01,24.60
2019,07,29,17,02,24.50
2019,07,29,17,03,24.50
2019,07,29,17,04,24.40
2019,07,29,17,05,24.40
2019,07,29,17,06,24.40
2019,07,29,17,07,24.50
2019,07,29,17,08,24.50
2019,07,29,17,09,24.60
2019,07,29,17,10,24.60
2019,07,29,17,11,24.60
2019,07,29,17,12,24.70
2019,07,29,17,13,24.60
2019,07,29,17,14,24.60
2019,07,29,17,15,24.50
2019,07,29,17,16,24.40
2019,07,29,17,17,24.40
2019,07,29,17,18,24.30
2019,07,29,17,19,24.20